| time (UTC) | temp F | wind direction | speed MPH | gust MPH | rain 1hr in | rain 24hr in | rain mn in | humidity % | barometer mb |
| 20260903082005 | 75 | 352 | 3.0 | 4.0 | 0.00 | 0.00 | 0.00 | 51 | 1018.6 |
| 20260903081605 | 74 | 356 | 2.0 | 4.0 | 0.00 | 0.00 | 0.00 | 50 | 1018.6 |
| 20260903080804 | 74 | 349 | 3.0 | 6.0 | 0.00 | 0.00 | 0.00 | 52 | 1018.8 |
| 20260903080405 | 73 | 346 | 4.0 | 6.0 | 0.00 | 0.00 | 0.00 | 52 | 1018.8 |
| 20260903080006 | 73 | 347 | 4.0 | 6.0 | 0.00 | 0.00 | 0.00 | 51 | 1018.7 |
| 20260903075605 | 73 | 346 | 3.0 | 6.0 | 0.00 | 0.00 | 0.00 | 52 | 1018.7 |
| 20260903074805 | 72 | 341 | 4.0 | 6.0 | 0.00 | 0.00 | 0.00 | 55 | 1018.7 |
| 20260903074004 | 72 | 343 | 3.0 | 6.0 | 0.00 | 0.00 | 0.00 | 54 | 1018.7 |
| 20260903073605 | 72 | 343 | 3.0 | 5.0 | 0.00 | 0.00 | 0.00 | 54 | 1018.7 |
| 20260903073204 | 71 | 344 | 3.0 | 6.0 | 0.00 | 0.00 | 0.00 | 54 | 1018.7 |
| 20260903072805 | 71 | 346 | 3.0 | 6.0 | 0.00 | 0.00 | 0.00 | 56 | 1018.8 |
| 20260903072404 | 71 | 350 | 3.0 | 6.0 | 0.00 | 0.00 | 0.00 | 54 | 1018.7 |
| 20260903072005 | 71 | 348 | 3.0 | 6.0 | 0.00 | 0.00 | 0.00 | 55 | 1018.7 |
| 20260903071204 | 71 | 341 | 3.0 | 5.0 | 0.00 | 0.00 | 0.00 | 55 | 1018.6 |
| 20260903070805 | 70 | 339 | 1.0 | 5.0 | 0.00 | 0.00 | 0.00 | 55 | 1018.6 |
| 20260903070405 | 71 | 354 | 0.0 | 2.0 | 0.00 | 0.00 | 0.00 | 56 | 1018.7 |
| 20260903070005 | 71 | 340 | 1.0 | 4.0 | 0.00 | 0.00 | 0.00 | 57 | 1018.7 |
| 20260903064405 | 69 | 235 | 1.0 | 4.0 | 0.00 | 0.00 | 0.00 | 62 | 1018.8 |
| 20260903064004 | 69 | 231 | 2.0 | 5.0 | 0.00 | 0.00 | 0.00 | 64 | 1018.8 |
| 20260903063604 | 68 | 243 | 2.0 | 5.0 | 0.00 | 0.00 | 0.00 | 64 | 1018.9 |
| 20260903063204 | 69 | 333 | 1.0 | 5.0 | 0.00 | 0.00 | 0.00 | 62 | 1018.7 |
| 20260903062805 | 75 | 2 | 1.0 | 1.0 | 0.00 | 0.00 | 0.00 | 63 | 1018.5 |
| 20260903062405 | 75 | 2 | 1.0 | 1.0 | 0.00 | 0.00 | 0.00 | 63 | 1018.4 |
| 20260903061605 | 75 | 2 | 1.0 | 1.0 | 0.00 | 0.00 | 0.00 | 63 | 1018.4 |
| 20260903061204 | 75 | 2 | 1.0 | 1.0 | 0.00 | 0.00 | 0.00 | 63 | 1018.4 |
| 20260903060404 | 75 | 2 | 1.0 | 1.0 | 0.00 | 0.00 | 0.00 | 63 | 1018.3 |
| 20260903060005 | 75 | 2 | 1.0 | 1.0 | 0.00 | 0.00 | 0.00 | 63 | 1018.4 |
| 20260903055605 | 75 | 2 | 1.0 | 1.0 | 0.00 | 0.00 | 0.00 | 63 | 1018.4 |
| 20260903055205 | 75 | 2 | 1.0 | 1.0 | 0.00 | 0.00 | 0.00 | 63 | 1018.3 |
| 20260903054804 | 75 | 2 | 1.0 | 1.0 | 0.00 | 0.00 | 0.00 | 63 | 1018.3 |
| 20260903053604 | 75 | 2 | 1.0 | 1.0 | 0.00 | 0.00 | 0.00 | 63 | 1018.1 |
| 20260903053204 | 75 | 2 | 1.0 | 1.0 | 0.00 | 0.00 | 0.00 | 63 | 1017.9 |
| 20260903052805 | 75 | 2 | 1.0 | 1.0 | 0.00 | 0.00 | 0.00 | 63 | 1017.9 |
| 20260903052405 | 75 | 2 | 1.0 | 1.0 | 0.00 | 0.00 | 0.00 | 63 | 1017.9 |
| 20260903051604 | 75 | 2 | 1.0 | 1.0 | 0.00 | 0.00 | 0.00 | 63 | 1017.7 |
| 20260903051204 | 75 | 2 | 1.0 | 1.0 | 0.00 | 0.00 | 0.00 | 63 | 1017.7 |
| 20260903050805 | 75 | 2 | 1.0 | 1.0 | 0.00 | 0.00 | 0.00 | 63 | 1017.6 |
| 20260903050405 | 75 | 2 | 1.0 | 1.0 | 0.00 | 0.00 | 0.00 | 63 | 1017.6 |
| 20260903045605 | 75 | 2 | 1.0 | 1.0 | 0.00 | 0.00 | 0.00 | 63 | 1017.5 |
| 20260903045205 | 75 | 2 | 1.0 | 1.0 | 0.00 | 0.00 | 0.00 | 63 | 1017.5 |
| 20260903044804 | 75 | 2 | 1.0 | 1.0 | 0.00 | 0.00 | 0.00 | 63 | 1017.4 |
| 20260903044404 | 75 | 2 | 1.0 | 1.0 | 0.00 | 0.00 | 0.00 | 63 | 1017.3 |
| 20260903043605 | 75 | 2 | 1.0 | 1.0 | 0.00 | 0.00 | 0.00 | 63 | 1017.3 |
| 20260903042804 | 75 | 2 | 1.0 | 1.0 | 0.00 | 0.00 | 0.00 | 63 | 1017.2 |
| 20260903042405 | 75 | 2 | 1.0 | 1.0 | 0.00 | 0.00 | 0.00 | 63 | 1017.1 |
| 20260903042005 | 75 | 2 | 1.0 | 1.0 | 0.00 | 0.00 | 0.00 | 63 | 1017.2 |
| 20260903041604 | 75 | 2 | 1.0 | 1.0 | 0.00 | 0.00 | 0.00 | 63 | 1017.1 |
| 20260903041204 | 75 | 2 | 1.0 | 1.0 | 0.00 | 0.00 | 0.00 | 63 | 1017.1 |
| 20260903040804 | 75 | 2 | 1.0 | 1.0 | 0.00 | 0.00 | 0.00 | 63 | 1017.0 |
| 20260903040405 | 75 | 2 | 1.0 | 1.0 | 0.00 | 0.00 | 0.00 | 63 | 1017.1 |
| 20260903040005 | 75 | 2 | 1.0 | 1.0 | 0.00 | 0.00 | 0.00 | 63 | 1017.1 |
| 20260903035604 | 75 | 2 | 1.0 | 1.0 | 0.00 | 0.00 | 0.00 | 63 | 1017.1 |
| 20260903035204 | 75 | 2 | 1.0 | 1.0 | 0.00 | 0.00 | 0.00 | 63 | 1017.0 |
| 20260903034804 | 75 | 2 | 1.0 | 1.0 | 0.00 | 0.00 | 0.00 | 63 | 1017.0 |
| 20260903034405 | 75 | 2 | 1.0 | 1.0 | 0.00 | 1.00 | 0.00 | 63 | 1017.0 |
| 20260903034004 | 75 | 2 | 1.0 | 1.0 | 0.00 | 1.00 | 0.00 | 63 | 1016.9 |
| 20260903033604 | 75 | 2 | 1.0 | 1.0 | 0.00 | 1.00 | 0.00 | 63 | 1017.0 |
| 20260903032804 | 75 | 2 | 1.0 | 1.0 | 0.00 | 1.00 | 0.00 | 63 | 1017.0 |
| 20260903032405 | 75 | 2 | 1.0 | 1.0 | 0.00 | 1.00 | 0.00 | 63 | 1016.9 |
| 20260903032005 | 75 | 2 | 1.0 | 1.0 | 0.00 | 1.00 | 0.00 | 63 | 1017.0 |
| 20260903031206 | 75 | 2 | 1.0 | 1.0 | 0.00 | 1.00 | 0.00 | 63 | 1017.0 |
| 20260903030805 | 75 | 2 | 1.0 | 1.0 | 0.00 | 1.00 | 0.00 | 63 | 1017.0 |
| 20260903030405 | 75 | 2 | 1.0 | 1.0 | 0.00 | 1.00 | 0.00 | 63 | 1017.0 |
| 20260903030005 | 75 | 2 | 1.0 | 1.0 | 0.00 | 1.00 | 0.00 | 63 | 1017.0 |
| 20260903025604 | 75 | 2 | 1.0 | 1.0 | 0.00 | 1.00 | 0.00 | 63 | 1016.9 |
| 20260903024804 | 75 | 2 | 1.0 | 1.0 | 0.00 | 1.00 | 0.00 | 63 | 1016.8 |
| 20260903024404 | 75 | 2 | 1.0 | 1.0 | 0.00 | 1.00 | 0.00 | 63 | 1016.8 |
| 20260903024005 | 75 | 2 | 1.0 | 1.0 | 0.00 | 1.00 | 0.00 | 63 | 1016.9 |
| 20260903023604 | 75 | 2 | 1.0 | 1.0 | 0.00 | 1.00 | 0.00 | 63 | 1016.9 |
| 20260903023205 | 75 | 2 | 1.0 | 1.0 | 0.00 | 1.00 | 0.00 | 63 | 1016.9 |
| 20260903022804 | 75 | 2 | 1.0 | 1.0 | 0.00 | 1.00 | 0.00 | 63 | 1016.9 |
| 20260903022404 | 75 | 2 | 1.0 | 1.0 | 0.00 | 1.00 | 0.00 | 63 | 1017.0 |
| 20260903022005 | 75 | 2 | 1.0 | 1.0 | 0.00 | 1.00 | 0.00 | 63 | 1017.0 |
| 20260903021605 | 75 | 2 | 1.0 | 1.0 | 0.00 | 1.00 | 0.00 | 63 | 1017.1 |
| 20260903021204 | 75 | 2 | 1.0 | 1.0 | 0.00 | 1.00 | 0.00 | 63 | 1017.0 |
| 20260903020805 | 75 | 2 | 1.0 | 1.0 | 0.00 | 1.00 | 0.00 | 63 | 1017.0 |
| 20260903020405 | 75 | 2 | 1.0 | 1.0 | 0.00 | 1.00 | 0.00 | 63 | 1017.1 |
| 20260903020005 | 75 | 2 | 1.0 | 1.0 | 0.00 | 1.00 | 0.00 | 63 | 1017.1 |
| 20260903015604 | 75 | 2 | 1.0 | 1.0 | 0.00 | 1.00 | 0.00 | 63 | 1017.2 |
| 20260903015204 | 75 | 2 | 1.0 | 1.0 | 0.00 | 1.00 | 0.00 | 63 | 1017.1 |
| 20260903014805 | 75 | 2 | 1.0 | 1.0 | 0.00 | 1.00 | 0.00 | 63 | 1017.1 |
| 20260903014404 | 75 | 2 | 1.0 | 1.0 | 0.00 | 1.00 | 0.00 | 63 | 1017.0 |
| 20260903014005 | 75 | 2 | 1.0 | 1.0 | 0.00 | 1.00 | 0.00 | 63 | 1017.1 |
| 20260903013604 | 75 | 2 | 1.0 | 1.0 | 0.00 | 1.00 | 0.00 | 63 | 1017.0 |
| 20260903013205 | 75 | 2 | 1.0 | 1.0 | 0.00 | 1.00 | 0.00 | 63 | 1017.0 |
| 20260903012805 | 75 | 2 | 1.0 | 1.0 | 0.00 | 1.00 | 0.00 | 63 | 1017.1 |
| 20260903012405 | 75 | 2 | 1.0 | 1.0 | 0.00 | 1.00 | 0.00 | 63 | 1017.1 |
| 20260903012004 | 75 | 2 | 1.0 | 1.0 | 0.00 | 1.00 | 0.00 | 63 | 1017.0 |
| 20260903011604 | 75 | 2 | 1.0 | 1.0 | 0.00 | 1.00 | 0.00 | 63 | 1017.1 |
| 20260903011204 | 75 | 2 | 1.0 | 1.0 | 0.00 | 1.00 | 0.00 | 63 | 1017.1 |
| 20260903010804 | 75 | 2 | 1.0 | 1.0 | 0.00 | 1.00 | 0.00 | 63 | 1017.1 |
| 20260903010404 | 75 | 2 | 1.0 | 1.0 | 0.00 | 1.00 | 0.00 | 63 | 1017.1 |
| 20260903005204 | 75 | 2 | 1.0 | 1.0 | 0.00 | 1.00 | 0.00 | 63 | 1017.0 |
| 20260903004805 | 75 | 2 | 1.0 | 1.0 | 0.00 | 1.01 | 0.00 | 63 | 1017.1 |
| 20260903004404 | 75 | 2 | 1.0 | 1.0 | 0.00 | 1.01 | 0.00 | 63 | 1017.1 |
| 20260903004004 | 75 | 2 | 1.0 | 1.0 | 0.00 | 1.01 | 0.00 | 63 | 1017.1 |
| 20260903003605 | 75 | 2 | 1.0 | 1.0 | 0.00 | 1.01 | 0.00 | 63 | 1017.0 |
| 20260903003204 | 75 | 2 | 1.0 | 1.0 | 0.00 | 1.01 | 0.00 | 63 | 1017.1 |
| 20260903002405 | 75 | 2 | 1.0 | 1.0 | 0.00 | 1.01 | 0.00 | 63 | 1017.1 |
| 20260903002005 | 75 | 2 | 1.0 | 1.0 | 0.00 | 1.01 | 0.00 | 63 | 1017.0 |
| 20260903001604 | 75 | 2 | 1.0 | 1.0 | 0.00 | 1.01 | 0.00 | 63 | 1017.1 |
| 20260903000405 | 75 | 2 | 1.0 | 1.0 | 0.00 | 1.01 | 0.00 | 63 | 1017.1 |
| 20260903000005 | 75 | 2 | 1.0 | 1.0 | 0.00 | 1.01 | 0.00 | 63 | 1017.2 |
| 20260902235604 | 75 | 2 | 1.0 | 1.0 | 0.00 | 1.01 | 0.00 | 63 | 1017.2 |
| 20260902234805 | 75 | 2 | 1.0 | 1.0 | 0.00 | 1.01 | 0.00 | 63 | 1017.3 |
| 20260902234405 | 75 | 2 | 1.0 | 1.0 | 0.00 | 1.01 | 0.00 | 63 | 1017.1 |
| 20260902233605 | 75 | 2 | 1.0 | 1.0 | 0.00 | 1.01 | 0.00 | 63 | 1017.1 |
| 20260902233205 | 75 | 2 | 1.0 | 1.0 | 0.00 | 1.01 | 0.00 | 63 | 1017.1 |
| 20260902232805 | 75 | 2 | 1.0 | 1.0 | 0.00 | 1.01 | 0.00 | 63 | 1016.9 |
| 20260902232405 | 75 | 2 | 1.0 | 1.0 | 0.00 | 1.01 | 0.00 | 63 | 1017.0 |
| 20260902232004 | 75 | 2 | 1.0 | 1.0 | 0.00 | 1.01 | 0.00 | 63 | 1016.9 |
| 20260902231604 | 75 | 2 | 1.0 | 1.0 | 0.00 | 1.01 | 0.00 | 63 | 1017.0 |
| 20260902230804 | 75 | 2 | 1.0 | 1.0 | 0.00 | 1.01 | 0.00 | 63 | 1017.0 |
| 20260902230405 | 75 | 2 | 1.0 | 1.0 | 0.00 | 1.01 | 0.00 | 63 | 1017.0 |
| 20260902225605 | 75 | 2 | 1.0 | 1.0 | 0.00 | 1.01 | 0.00 | 63 | 1016.9 |
| 20260902224804 | 75 | 2 | 1.0 | 1.0 | 0.00 | 1.01 | 0.00 | 63 | 1016.9 |
| 20260902224404 | 75 | 2 | 1.0 | 1.0 | 0.00 | 1.01 | 0.00 | 63 | 1016.9 |
| 20260902224005 | 75 | 2 | 1.0 | 1.0 | 0.00 | 1.01 | 0.00 | 63 | 1017.0 |
| 20260902223604 | 75 | 2 | 1.0 | 1.0 | 0.00 | 1.01 | 0.00 | 63 | 1016.9 |
| 20260902223205 | 75 | 2 | 1.0 | 1.0 | 0.00 | 1.01 | 0.00 | 63 | 1016.9 |
| 20260902222804 | 75 | 2 | 1.0 | 1.0 | 0.00 | 1.01 | 0.00 | 63 | 1016.9 |
| 20260902222405 | 75 | 2 | 1.0 | 1.0 | 0.00 | 1.01 | 0.00 | 63 | 1016.9 |
| 20260902221604 | 75 | 2 | 1.0 | 1.0 | 0.00 | 1.01 | 0.00 | 63 | 1016.8 |
| 20260902221205 | 75 | 2 | 1.0 | 1.0 | 0.00 | 1.01 | 0.00 | 63 | 1016.7 |
| 20260902220804 | 75 | 2 | 1.0 | 1.0 | 0.00 | 1.01 | 0.00 | 63 | 1016.8 |
| 20260902220404 | 75 | 2 | 1.0 | 1.0 | 0.00 | 1.01 | 0.00 | 63 | 1016.7 |
| 20260902220008 | 75 | 2 | 1.0 | 1.0 | 0.00 | 1.01 | 0.00 | 63 | 1016.7 |
| 20260902215605 | 75 | 2 | 1.0 | 1.0 | 0.00 | 1.01 | 1.01 | 63 | 1016.7 |
| 20260902215205 | 75 | 2 | 1.0 | 1.0 | 0.00 | 1.01 | 1.01 | 63 | 1016.8 |
| 20260902214804 | 75 | 2 | 1.0 | 1.0 | 0.00 | 1.01 | 1.01 | 63 | 1016.7 |
| 20260902214405 | 75 | 2 | 1.0 | 1.0 | 0.00 | 1.01 | 1.01 | 63 | 1016.8 |
| 20260902214006 | 75 | 2 | 1.0 | 1.0 | 0.00 | 1.01 | 1.01 | 63 | 1016.7 |
| 20260902213604 | 75 | 2 | 1.0 | 1.0 | 0.00 | 1.01 | 1.01 | 63 | 1016.6 |
| 20260902213205 | 75 | 2 | 1.0 | 1.0 | 0.00 | 1.01 | 1.01 | 63 | 1016.7 |
| 20260902212404 | 75 | 2 | 1.0 | 1.0 | 0.00 | 1.01 | 1.01 | 63 | 1016.4 |
| 20260902212005 | 75 | 2 | 1.0 | 1.0 | 0.00 | 1.01 | 1.01 | 63 | 1016.4 |
| 20260902211205 | 75 | 2 | 1.0 | 1.0 | 0.00 | 1.01 | 1.01 | 63 | 1016.4 |
| 20260902210805 | 75 | 2 | 1.0 | 1.0 | 0.00 | 1.01 | 1.01 | 63 | 1016.4 |
| 20260902210404 | 75 | 2 | 1.0 | 1.0 | 0.00 | 1.01 | 1.01 | 63 | 1016.3 |
| 20260902210005 | 75 | 2 | 1.0 | 1.0 | 0.00 | 1.01 | 1.01 | 63 | 1016.2 |
| 20260902205604 | 75 | 2 | 1.0 | 1.0 | 0.00 | 1.01 | 1.01 | 63 | 1016.3 |
| 20260902205204 | 75 | 2 | 1.0 | 1.0 | 0.00 | 1.01 | 1.01 | 63 | 1016.4 |
| 20260902204405 | 75 | 2 | 1.0 | 1.0 | 0.00 | 1.01 | 1.01 | 63 | 1016.3 |
| 20260902204005 | 75 | 2 | 1.0 | 1.0 | 0.00 | 1.01 | 1.01 | 63 | 1016.3 |
| 20260902203604 | 75 | 2 | 1.0 | 1.0 | 0.00 | 1.01 | 1.01 | 63 | 1016.2 |
| 20260902203204 | 75 | 2 | 1.0 | 1.0 | 0.00 | 1.01 | 1.01 | 63 | 1016.3 |
| 20260902202804 | 75 | 2 | 1.0 | 1.0 | 0.00 | 1.01 | 1.01 | 63 | 1016.2 |
| 20260902202405 | 75 | 2 | 1.0 | 1.0 | 0.00 | 1.01 | 1.01 | 63 | 1016.1 |
| 20260902202004 | 75 | 2 | 1.0 | 1.0 | 0.00 | 1.01 | 1.01 | 63 | 1016.2 |
| 20260902201605 | 75 | 2 | 1.0 | 1.0 | 0.00 | 1.01 | 1.01 | 63 | 1016.1 |
| 20260902200804 | 75 | 2 | 1.0 | 1.0 | 0.00 | 1.01 | 1.01 | 63 | 1016.0 |
| 20260902200405 | 75 | 2 | 1.0 | 1.0 | 0.00 | 1.01 | 1.01 | 63 | 1016.0 |
| 20260902200004 | 75 | 2 | 1.0 | 1.0 | 0.00 | 1.01 | 1.01 | 63 | 1016.0 |
| 20260902195204 | 75 | 2 | 1.0 | 1.0 | 0.00 | 1.01 | 1.01 | 63 | 1016.1 |
| 20260902194804 | 75 | 2 | 1.0 | 1.0 | 0.00 | 1.01 | 1.01 | 63 | 1016.0 |
| 20260902194404 | 75 | 2 | 1.0 | 1.0 | 0.00 | 1.01 | 1.01 | 63 | 1016.0 |
| 20260902194005 | 75 | 2 | 1.0 | 1.0 | 0.00 | 1.01 | 1.01 | 63 | 1015.9 |
| 20260902193604 | 75 | 2 | 1.0 | 1.0 | 0.00 | 1.01 | 1.01 | 63 | 1015.8 |
| 20260902192805 | 75 | 2 | 1.0 | 1.0 | 0.00 | 1.01 | 1.01 | 63 | 1015.8 |
| 20260902192404 | 75 | 2 | 1.0 | 1.0 | 0.00 | 1.01 | 1.01 | 63 | 1015.8 |
| 20260902192005 | 75 | 2 | 1.0 | 1.0 | 0.00 | 1.01 | 1.01 | 63 | 1015.7 |
| 20260902191604 | 75 | 2 | 1.0 | 1.0 | 0.00 | 1.01 | 1.01 | 63 | 1015.7 |
| 20260902190805 | 75 | 2 | 1.0 | 1.0 | 0.00 | 1.01 | 1.01 | 63 | 1015.6 |
| 20260902190404 | 75 | 2 | 1.0 | 1.0 | 0.00 | 1.01 | 1.01 | 63 | 1015.6 |
| 20260902190005 | 75 | 2 | 1.0 | 1.0 | 0.00 | 1.01 | 1.01 | 63 | 1015.6 |
| 20260902185604 | 75 | 2 | 1.0 | 1.0 | 0.00 | 1.01 | 1.01 | 63 | 1015.5 |
| 20260902185206 | 75 | 2 | 1.0 | 1.0 | 0.00 | 1.01 | 1.01 | 63 | 1015.5 |
| 20260902184804 | 75 | 2 | 1.0 | 1.0 | 0.00 | 1.01 | 1.01 | 63 | 1015.3 |
| 20260902184405 | 75 | 2 | 1.0 | 1.0 | 0.00 | 1.01 | 1.01 | 63 | 1015.3 |
| 20260902184005 | 75 | 2 | 1.0 | 1.0 | 0.00 | 1.01 | 1.01 | 63 | 1015.2 |
| 20260902183604 | 75 | 2 | 1.0 | 1.0 | 0.00 | 1.01 | 1.01 | 63 | 1015.1 |
| 20260902182804 | 75 | 2 | 1.0 | 1.0 | 0.00 | 1.01 | 1.01 | 63 | 1014.9 |
| 20260902182005 | 75 | 2 | 1.0 | 1.0 | 0.00 | 1.01 | 1.01 | 63 | 1014.9 |
| 20260902181205 | 75 | 2 | 1.0 | 1.0 | 0.00 | 1.01 | 1.01 | 63 | 1015.0 |
| 20260902180804 | 75 | 2 | 1.0 | 1.0 | 0.00 | 1.01 | 1.01 | 63 | 1014.9 |
| 20260902180404 | 75 | 2 | 1.0 | 1.0 | 0.00 | 1.01 | 1.01 | 63 | 1014.8 |
| 20260902180007 | 75 | 2 | 1.0 | 1.0 | 0.00 | 1.01 | 1.01 | 63 | 1014.9 |
| 20260902175604 | 75 | 2 | 1.0 | 1.0 | 0.00 | 1.01 | 1.01 | 63 | 1014.9 |
| 20260902175204 | 75 | 2 | 1.0 | 1.0 | 0.00 | 1.01 | 1.01 | 63 | 1014.9 |
| 20260902174805 | 75 | 2 | 1.0 | 1.0 | 0.00 | 1.01 | 1.01 | 63 | 1014.8 |
| 20260902174404 | 75 | 2 | 1.0 | 1.0 | 0.00 | 1.01 | 1.01 | 63 | 1014.8 |
| 20260902173604 | 75 | 2 | 1.0 | 1.0 | 0.00 | 1.01 | 1.01 | 63 | 1014.8 |
| 20260902173204 | 75 | 2 | 1.0 | 1.0 | 0.00 | 1.01 | 1.01 | 63 | 1014.7 |
| 20260902172804 | 75 | 2 | 1.0 | 1.0 | 0.00 | 1.01 | 1.01 | 63 | 1014.7 |
| 20260902172404 | 75 | 2 | 1.0 | 1.0 | 0.00 | 1.01 | 1.01 | 63 | 1014.7 |
| 20260902172004 | 75 | 2 | 1.0 | 1.0 | 0.00 | 1.01 | 1.01 | 63 | 1014.6 |
| 20260902171604 | 75 | 2 | 1.0 | 1.0 | 0.00 | 1.01 | 1.01 | 63 | 1014.7 |
| 20260902170805 | 75 | 2 | 1.0 | 1.0 | 0.00 | 1.01 | 1.01 | 63 | 1014.7 |
| 20260902170405 | 75 | 2 | 1.0 | 1.0 | 0.00 | 1.01 | 1.01 | 63 | 1014.7 |
| 20260902170004 | 75 | 2 | 1.0 | 1.0 | 0.00 | 1.01 | 1.01 | 63 | 1014.7 |
| 20260902165605 | 75 | 2 | 1.0 | 1.0 | 0.00 | 1.01 | 1.01 | 63 | 1014.7 |
| 20260902164804 | 75 | 2 | 1.0 | 1.0 | 0.00 | 1.01 | 1.01 | 63 | 1014.7 |
| 20260902164405 | 75 | 2 | 1.0 | 1.0 | 0.00 | 1.01 | 1.01 | 63 | 1014.6 |
| 20260902164004 | 75 | 2 | 1.0 | 1.0 | 0.00 | 1.01 | 1.01 | 63 | 1014.7 |
| 20260902163605 | 75 | 2 | 1.0 | 1.0 | 0.00 | 1.01 | 1.01 | 63 | 1014.7 |
| 20260902163205 | 75 | 2 | 1.0 | 1.0 | 0.00 | 1.01 | 1.01 | 63 | 1014.6 |
| 20260902162804 | 75 | 2 | 1.0 | 1.0 | 0.00 | 1.01 | 1.01 | 63 | 1014.5 |
| 20260902162405 | 75 | 2 | 1.0 | 1.0 | 0.00 | 1.01 | 1.01 | 63 | 1014.6 |
| 20260902162004 | 75 | 2 | 1.0 | 1.0 | 0.00 | 1.01 | 1.01 | 63 | 1014.6 |
| 20260902161605 | 75 | 2 | 1.0 | 1.0 | 0.00 | 1.01 | 1.01 | 63 | 1014.6 |
| 20260902161204 | 75 | 2 | 1.0 | 1.0 | 0.00 | 1.01 | 1.01 | 63 | 1014.6 |
| 20260902160804 | 75 | 2 | 1.0 | 1.0 | 0.00 | 1.01 | 1.01 | 63 | 1014.5 |
| 20260902160404 | 75 | 2 | 1.0 | 1.0 | 0.00 | 1.01 | 1.01 | 63 | 1014.5 |
| 20260902160006 | 75 | 2 | 1.0 | 1.0 | 0.00 | 1.01 | 1.01 | 63 | 1014.6 |
| 20260902155604 | 75 | 2 | 1.0 | 1.0 | 0.00 | 1.01 | 1.01 | 63 | 1014.6 |
| 20260902155204 | 75 | 2 | 1.0 | 1.0 | 0.00 | 1.01 | 1.01 | 63 | 1014.7 |
| 20260902154804 | 75 | 2 | 1.0 | 1.0 | 0.00 | 1.01 | 1.01 | 63 | 1014.6 |
| 20260902154404 | 75 | 2 | 1.0 | 1.0 | 0.00 | 1.01 | 1.01 | 63 | 1014.7 |
| 20260902153204 | 75 | 2 | 1.0 | 1.0 | 0.00 | 1.01 | 1.01 | 63 | 1014.8 |
| 20260902152804 | 75 | 2 | 1.0 | 1.0 | 0.00 | 1.01 | 1.01 | 63 | 1014.8 |
| 20260902152405 | 75 | 2 | 1.0 | 1.0 | 0.00 | 1.01 | 1.01 | 63 | 1014.9 |
| 20260902152004 | 75 | 2 | 1.0 | 1.0 | 0.00 | 1.01 | 1.01 | 63 | 1015.0 |
| 20260902151204 | 75 | 2 | 1.0 | 1.0 | 0.00 | 1.01 | 1.01 | 63 | 1014.9 |
| 20260902150804 | 75 | 2 | 1.0 | 1.0 | 0.00 | 1.01 | 1.01 | 63 | 1014.9 |
| 20260902150404 | 75 | 2 | 1.0 | 1.0 | 0.00 | 1.01 | 1.01 | 63 | 1015.0 |
| 20260902150005 | 75 | 2 | 1.0 | 1.0 | 0.00 | 1.01 | 1.01 | 63 | 1014.9 |
| 20260902145604 | 75 | 2 | 1.0 | 1.0 | 0.00 | 1.01 | 1.01 | 63 | 1015.0 |
| 20260902145205 | 75 | 2 | 1.0 | 1.0 | 0.00 | 1.01 | 1.01 | 63 | 1015.0 |
| 20260902144804 | 75 | 2 | 1.0 | 1.0 | 0.00 | 1.01 | 1.01 | 63 | 1015.2 |
| 20260902144404 | 75 | 2 | 1.0 | 1.0 | 0.00 | 1.01 | 1.01 | 63 | 1015.2 |
| 20260902144005 | 75 | 2 | 1.0 | 1.0 | 0.00 | 1.01 | 1.01 | 63 | 1015.3 |
| 20260902143604 | 75 | 2 | 1.0 | 1.0 | 0.00 | 1.01 | 1.01 | 63 | 1015.4 |
| 20260902143204 | 75 | 2 | 1.0 | 1.0 | 0.00 | 1.01 | 1.01 | 63 | 1015.3 |
| 20260902142804 | 75 | 2 | 1.0 | 1.0 | 0.00 | 1.01 | 1.01 | 63 | 1015.3 |
| 20260902142404 | 75 | 2 | 1.0 | 1.0 | 0.00 | 1.01 | 1.01 | 63 | 1015.3 |
| 20260902141604 | 75 | 2 | 1.0 | 1.0 | 0.00 | 1.01 | 1.01 | 63 | 1015.4 |
| 20260902141204 | 75 | 2 | 1.0 | 1.0 | 0.00 | 1.01 | 1.01 | 63 | 1015.4 |
| 20260902140404 | 75 | 2 | 1.0 | 1.0 | 0.00 | 1.01 | 1.01 | 63 | 1015.4 |
| 20260902140006 | 75 | 2 | 1.0 | 1.0 | 0.00 | 1.01 | 1.01 | 63 | 1015.5 |
| 20260902135204 | 75 | 2 | 1.0 | 1.0 | 0.00 | 1.01 | 1.01 | 63 | 1015.4 |
| 20260902134804 | 75 | 2 | 1.0 | 1.0 | 0.00 | 1.01 | 1.01 | 63 | 1015.5 |
| 20260902134405 | 75 | 2 | 1.0 | 1.0 | 0.00 | 1.01 | 1.01 | 63 | 1015.6 |
| 20260902134004 | 75 | 2 | 1.0 | 1.0 | 0.00 | 1.01 | 1.01 | 63 | 1015.6 |
| 20260902133604 | 75 | 2 | 1.0 | 1.0 | 0.00 | 1.01 | 1.01 | 63 | 1015.6 |
| 20260902133204 | 75 | 2 | 1.0 | 1.0 | 0.00 | 1.01 | 1.01 | 63 | 1015.7 |
| 20260902132804 | 75 | 2 | 1.0 | 1.0 | 0.00 | 1.01 | 1.01 | 63 | 1015.7 |
| 20260902132404 | 75 | 2 | 1.0 | 1.0 | 0.00 | 1.01 | 1.01 | 63 | 1015.7 |
| 20260902132005 | 75 | 2 | 1.0 | 1.0 | 0.00 | 1.01 | 1.01 | 63 | 1015.7 |
| 20260902131204 | 75 | 2 | 1.0 | 1.0 | 0.00 | 2.01 | 1.01 | 63 | 1015.8 |
| 20260902130805 | 75 | 2 | 1.0 | 1.0 | 0.00 | 2.02 | 1.01 | 63 | 1015.9 |
| 20260902130004 | 75 | 2 | 1.0 | 1.0 | 0.00 | 3.02 | 1.01 | 63 | 1016.0 |
| 20260902125604 | 75 | 2 | 1.0 | 1.0 | 0.00 | 3.02 | 1.01 | 63 | 1016.1 |
| 20260902125204 | 75 | 2 | 1.0 | 1.0 | 0.00 | 3.02 | 1.01 | 63 | 1016.0 |
| 20260902124404 | 75 | 2 | 1.0 | 1.0 | 0.00 | 3.02 | 1.01 | 63 | 1016.3 |
| 20260902124005 | 75 | 2 | 1.0 | 1.0 | 0.00 | 3.02 | 1.01 | 63 | 1016.3 |
| 20260902123604 | 75 | 2 | 1.0 | 1.0 | 0.00 | 3.02 | 1.01 | 63 | 1016.4 |
| 20260902123204 | 75 | 2 | 1.0 | 1.0 | 0.00 | 3.02 | 1.01 | 63 | 1016.4 |
| 20260902122804 | 75 | 2 | 1.0 | 1.0 | 0.00 | 3.02 | 1.01 | 63 | 1016.4 |
| 20260902122005 | 75 | 2 | 1.0 | 1.0 | 0.00 | 3.02 | 1.01 | 63 | 1016.5 |
| 20260902121604 | 75 | 2 | 1.0 | 1.0 | 0.00 | 3.02 | 1.01 | 63 | 1016.5 |
| 20260902121204 | 75 | 2 | 1.0 | 1.0 | 0.00 | 3.02 | 1.01 | 63 | 1016.5 |
| 20260902120804 | 75 | 2 | 1.0 | 1.0 | 0.00 | 3.02 | 1.01 | 63 | 1016.6 |
| 20260902115604 | 75 | 2 | 1.0 | 1.0 | 0.00 | 3.02 | 1.01 | 63 | 1016.7 |
| 20260902115204 | 75 | 2 | 1.0 | 1.0 | 0.00 | 3.02 | 1.01 | 63 | 1016.7 |
| 20260902114804 | 75 | 2 | 1.0 | 1.0 | 0.00 | 3.02 | 1.01 | 63 | 1016.7 |
| 20260902114404 | 75 | 2 | 1.0 | 1.0 | 0.00 | 3.02 | 1.01 | 63 | 1016.7 |
| 20260902114004 | 75 | 2 | 1.0 | 1.0 | 0.00 | 3.02 | 1.01 | 63 | 1016.8 |
| 20260902113204 | 75 | 2 | 1.0 | 1.0 | 0.00 | 3.02 | 1.01 | 63 | 1016.8 |
| 20260902112804 | 75 | 2 | 1.0 | 1.0 | 0.00 | 3.02 | 1.01 | 63 | 1016.9 |
| 20260902112403 | 75 | 2 | 1.0 | 1.0 | 0.00 | 3.02 | 1.01 | 63 | 1016.9 |
| 20260902112004 | 75 | 2 | 1.0 | 1.0 | 0.00 | 3.02 | 1.01 | 63 | 1017.0 |
| 20260902110804 | 75 | 2 | 1.0 | 1.0 | 0.00 | 3.02 | 1.01 | 63 | 1017.2 |
| 20260902105604 | 75 | 2 | 1.0 | 1.0 | 0.00 | 3.02 | 1.01 | 63 | 1017.4 |
| 20260902105205 | 75 | 2 | 1.0 | 1.0 | 0.00 | 3.02 | 1.01 | 63 | 1017.5 |
| 20260902104805 | 75 | 2 | 1.0 | 1.0 | 0.00 | 3.02 | 1.01 | 63 | 1017.5 |
| 20260902104404 | 75 | 2 | 1.0 | 1.0 | 0.00 | 3.02 | 1.01 | 63 | 1017.5 |
| 20260902104005 | 75 | 2 | 1.0 | 1.0 | 0.00 | 3.02 | 1.01 | 63 | 1017.7 |
| 20260902103604 | 75 | 2 | 1.0 | 1.0 | 0.00 | 3.02 | 1.01 | 63 | 1017.8 |
| 20260902103203 | 75 | 2 | 1.0 | 1.0 | 0.00 | 3.02 | 1.01 | 63 | 1017.7 |
| 20260902102804 | 75 | 2 | 1.0 | 1.0 | 0.00 | 3.02 | 1.01 | 63 | 1017.8 |
| 20260902102404 | 75 | 2 | 1.0 | 1.0 | 0.00 | 3.02 | 1.01 | 63 | 1017.8 |
| 20260902101604 | 75 | 2 | 1.0 | 1.0 | 0.00 | 3.02 | 1.01 | 63 | 1017.8 |
| 20260902101204 | 75 | 2 | 1.0 | 1.0 | 0.00 | 3.02 | 1.01 | 63 | 1017.8 |
| 20260902100404 | 75 | 2 | 1.0 | 1.0 | 0.00 | 3.02 | 1.01 | 63 | 1017.9 |
| 20260902095604 | 75 | 2 | 1.0 | 1.0 | 0.00 | 3.02 | 1.01 | 63 | 1017.8 |
| 20260902095204 | 75 | 2 | 1.0 | 1.0 | 0.00 | 3.02 | 1.01 | 63 | 1017.8 |
| 20260902094803 | 75 | 2 | 1.0 | 1.0 | 0.00 | 3.02 | 1.01 | 63 | 1017.8 |
| 20260902094404 | 75 | 2 | 1.0 | 1.0 | 0.00 | 4.02 | 1.01 | 63 | 1017.9 |
| 20260902093604 | 75 | 2 | 1.0 | 1.0 | 0.00 | 5.03 | 1.01 | 63 | 1017.9 |
| 20260902093205 | 75 | 2 | 1.0 | 1.0 | 0.00 | 5.03 | 1.01 | 63 | 1018.0 |
| 20260902092804 | 75 | 2 | 1.0 | 1.0 | 0.00 | 5.04 | 1.01 | 63 | 1018.0 |
| 20260902092404 | 75 | 2 | 1.0 | 1.0 | 0.00 | 5.04 | 1.01 | 63 | 1018.0 |
| 20260902092005 | 75 | 2 | 1.0 | 1.0 | 0.00 | 5.04 | 1.01 | 63 | 1018.1 |
| 20260902091604 | 75 | 2 | 1.0 | 1.0 | 0.00 | 5.04 | 1.01 | 63 | 1018.1 |
| 20260902091204 | 75 | 2 | 1.0 | 1.0 | 0.00 | 5.04 | 1.01 | 63 | 1018.1 |
| 20260902090804 | 75 | 3 | 1.0 | 5.0 | 0.00 | 5.04 | 1.01 | 63 | 1018.1 |
| 20260902090404 | 75 | 354 | 2.0 | 5.0 | 0.00 | 5.04 | 1.01 | 63 | 1018.2 |
| 20260902090005 | 75 | 348 | 3.0 | 5.0 | 0.00 | 5.04 | 1.01 | 63 | 1018.2 |
| 20260902085604 | 74 | 346 | 3.0 | 5.0 | 0.00 | 5.04 | 1.01 | 65 | 1018.3 |
| 20260902085204 | 74 | 351 | 3.0 | 6.0 | 0.00 | 5.04 | 1.01 | 65 | 1018.3 |
| 20260902084804 | 75 | 351 | 3.0 | 6.0 | 0.00 | 6.05 | 1.01 | 65 | 1018.1 |
| 20260902084404 | 74 | 348 | 4.0 | 6.0 | 0.00 | 6.05 | 1.01 | 66 | 1018.2 |
| 20260902084004 | 74 | 347 | 4.0 | 7.0 | 0.00 | 6.05 | 1.01 | 66 | 1018.2 |
| 20260902083605 | 74 | 343 | 5.0 | 7.0 | 0.00 | 6.05 | 1.01 | 66 | 1018.1 |
| 20260902083204 | 73 | 341 | 4.0 | 7.0 | 0.00 | 6.05 | 1.01 | 66 | 1018.1 |
| 20260902082805 | 73 | 345 | 3.0 | 6.0 | 0.00 | 6.05 | 1.01 | 67 | 1018.1 |
| 20260902082404 | 73 | 357 | 3.0 | 6.0 | 0.00 | 6.05 | 1.01 | 67 | 1018.1 |